Time,TemperatureF,DewpointF,PressureIn,WindDirection,WindDirectionDegrees,WindSpeedMPH,WindSpeedGustMPH,Humidity,HourlyPrecipIn,Conditions,Clouds,dailyrainin,SoftwareType,DateUTC
2013-06-19 00:04:00,66.6,62.9,29.95,ESE,113,0.0,0.0,88,0.00,,,0.00,WUHU216HW,2013-06-19 05:04:00,
2013-06-19 00:30:00,66.1,62.4,29.95,ESE,113,0.0,0.0,88,0.00,,,0.00,WUHU216HW,2013-06-19 05:30:00,
2013-06-19 00:35:00,66.1,62.4,29.95,ESE,113,0.0,0.0,88,0.00,,,0.00,WUHU216HW,2013-06-19 05:35:00,
2013-06-19 00:59:00,65.5,62.2,29.97,ESE,113,0.0,0.0,89,0.00,,,0.00,WUHU216HW,2013-06-19 05:59:00,
2013-06-19 01:04:00,65.5,62.2,29.97,ESE,113,0.0,0.0,89,0.00,,,0.00,WUHU216HW,2013-06-19 06:04:00,
2013-06-19 01:29:00,65.7,62.0,29.95,ESE,113,0.0,0.0,88,0.00,,,0.00,WUHU216HW,2013-06-19 06:29:00,
2013-06-19 01:35:00,65.7,62.0,29.95,ESE,113,0.0,0.0,88,0.00,,,0.00,WUHU216HW,2013-06-19 06:35:00,
2013-06-19 01:59:00,65.3,61.8,29.96,ESE,113,0.0,0.0,88,0.00,,,0.00,WUHU216HW,2013-06-19 06:59:00,
2013-06-19 02:04:00,65.3,61.8,29.96,ESE,113,0.0,0.0,88,0.00,,,0.00,WUHU216HW,2013-06-19 07:04:00,
2013-06-19 02:30:00,65.0,61.8,29.96,ESE,113,0.0,0.0,89,0.00,,,0.00,WUHU216HW,2013-06-19 07:30:00,
2013-06-19 02:35:00,65.0,61.8,29.96,ESE,113,0.0,0.0,89,0.00,,,0.00,WUHU216HW,2013-06-19 07:35:00,
2013-06-19 02:59:00,64.6,61.4,29.96,ESE,113,0.0,0.0,89,0.00,,,0.00,WUHU216HW,2013-06-19 07:59:00,
2013-06-19 03:04:00,64.6,61.4,29.96,ESE,113,0.0,0.0,89,0.00,,,0.00,WUHU216HW,2013-06-19 08:04:00,
2013-06-19 03:30:00,64.3,61.0,29.96,ESE,113,0.0,0.0,89,0.00,,,0.00,WUHU216HW,2013-06-19 08:30:00,
2013-06-19 03:35:00,64.3,61.0,29.96,ESE,113,0.0,0.0,89,0.00,,,0.00,WUHU216HW,2013-06-19 08:35:00,
2013-06-19 03:59:00,64.3,61.0,29.96,ESE,113,0.0,0.0,89,0.00,,,0.00,WUHU216HW,2013-06-19 08:59:00,
2013-06-19 04:04:00,64.3,61.0,29.96,ESE,113,0.0,0.0,89,0.00,,,0.00,WUHU216HW,2013-06-19 09:04:00,
2013-06-19 04:30:00,63.9,60.7,29.95,ESE,113,0.0,0.0,89,0.00,,,0.00,WUHU216HW,2013-06-19 09:30:00,
2013-06-19 04:35:00,63.9,60.7,29.95,ESE,113,0.0,0.0,89,0.00,,,0.00,WUHU216HW,2013-06-19 09:35:00,
2013-06-19 05:00:00,64.1,61.2,29.95,ESE,113,0.0,0.0,90,0.00,,,0.00,WUHU216HW,2013-06-19 10:00:00,
2013-06-19 05:05:00,64.1,61.2,29.95,ESE,113,0.0,0.0,90,0.00,,,0.00,WUHU216HW,2013-06-19 10:05:00,
2013-06-19 05:30:00,63.9,61.0,29.96,ESE,113,0.0,0.0,90,0.00,,,0.00,WUHU216HW,2013-06-19 10:30:00,
2013-06-19 05:35:00,63.9,61.0,29.96,ESE,113,0.0,0.0,90,0.00,,,0.00,WUHU216HW,2013-06-19 10:35:00,
2013-06-19 06:00:00,63.7,60.5,29.97,ESE,113,0.0,0.0,89,0.00,,,0.00,WUHU216HW,2013-06-19 11:00:00,
2013-06-19 06:05:00,63.7,60.5,29.97,ESE,113,0.0,0.0,89,0.00,,,0.00,WUHU216HW,2013-06-19 11:05:00,
2013-06-19 06:30:00,64.1,60.8,29.97,South,180,0.2,0.2,89,0.00,,,0.00,WUHU216HW,2013-06-19 11:30:00,
2013-06-19 06:35:00,64.1,60.8,29.97,South,180,0.2,0.2,89,0.00,,,0.00,WUHU216HW,2013-06-19 11:35:00,
2013-06-19 07:00:00,65.2,61.6,29.97,South,180,0.4,0.4,88,0.00,,,0.00,WUHU216HW,2013-06-19 12:00:00,
2013-06-19 07:05:00,65.2,61.6,29.97,South,180,0.4,0.4,88,0.00,,,0.00,WUHU216HW,2013-06-19 12:05:00,
2013-06-19 07:30:00,66.1,62.7,29.98,SSW,203,1.1,1.1,89,0.00,,,0.00,WUHU216HW,2013-06-19 12:30:00,
2013-06-19 07:35:00,66.1,62.7,29.98,SSW,203,1.1,1.1,89,0.00,,,0.00,WUHU216HW,2013-06-19 12:35:00,
2013-06-19 07:59:00,67.9,64.4,29.98,South,180,1.1,1.1,89,0.00,,,0.00,WUHU216HW,2013-06-19 12:59:00,
2013-06-19 08:04:00,67.9,64.4,29.98,South,180,1.1,1.1,89,0.00,,,0.00,WUHU216HW,2013-06-19 13:04:00,
2013-06-19 08:30:00,70.0,66.2,29.98,South,180,0.0,0.0,88,0.00,,,0.00,WUHU216HW,2013-06-19 13:30:00,
2013-06-19 08:35:00,70.0,66.2,29.98,South,180,0.0,0.0,88,0.00,,,0.00,WUHU216HW,2013-06-19 13:35:00,
2013-06-19 08:59:00,72.2,67.8,29.99,SSW,203,2.5,2.5,86,0.00,,,0.00,WUHU216HW,2013-06-19 13:59:00,
2013-06-19 09:05:00,72.2,67.8,29.99,SSW,203,2.5,2.5,86,0.00,,,0.00,WUHU216HW,2013-06-19 14:05:00,
2013-06-19 09:30:00,73.6,68.9,30.00,South,180,2.5,2.5,85,0.00,,,0.00,WUHU216HW,2013-06-19 14:30:00,
2013-06-19 09:35:00,73.6,68.9,30.00,South,180,2.5,2.5,85,0.00,,,0.00,WUHU216HW,2013-06-19 14:35:00,
2013-06-19 09:59:00,74.5,69.0,30.00,South,180,3.4,3.4,83,0.00,,,0.00,WUHU216HW,2013-06-19 14:59:00,
2013-06-19 10:04:00,74.5,69.0,30.00,South,180,3.4,3.4,83,0.00,,,0.00,WUHU216HW,2013-06-19 15:04:00,
2013-06-19 10:30:00,76.0,69.8,29.99,South,180,1.1,1.1,81,0.00,,,0.00,WUHU216HW,2013-06-19 15:30:00,
2013-06-19 10:35:00,76.0,69.8,29.99,South,180,1.1,1.1,81,0.00,,,0.00,WUHU216HW,2013-06-19 15:35:00,
2013-06-19 10:59:00,76.9,69.9,29.99,South,180,1.6,1.6,79,0.00,,,0.00,WUHU216HW,2013-06-19 15:59:00,
2013-06-19 11:04:00,76.9,69.9,29.99,South,180,1.6,1.6,79,0.00,,,0.00,WUHU216HW,2013-06-19 16:04:00,
2013-06-19 11:30:00,78.8,71.4,29.99,South,180,1.1,1.1,78,0.00,,,0.00,WUHU216HW,2013-06-19 16:30:00,
2013-06-19 11:35:00,78.8,71.4,29.99,South,180,1.1,1.1,78,0.00,,,0.00,WUHU216HW,2013-06-19 16:35:00,
2013-06-19 11:59:00,80.5,71.8,29.98,South,180,5.1,5.1,75,0.00,,,0.00,WUHU216HW,2013-06-19 16:59:00,
2013-06-19 12:04:00,80.5,71.8,29.98,South,180,5.1,5.1,75,0.00,,,0.00,WUHU216HW,2013-06-19 17:04:00,
2013-06-19 12:30:00,81.4,71.9,29.97,South,180,3.8,3.8,73,0.00,,,0.00,WUHU216HW,2013-06-19 17:30:00,
2013-06-19 12:35:00,81.4,71.9,29.97,South,180,3.8,3.8,73,0.00,,,0.00,WUHU216HW,2013-06-19 17:35:00,
2013-06-19 12:59:00,83.0,72.6,29.96,South,180,0.2,0.2,71,0.00,,,0.00,WUHU216HW,2013-06-19 17:59:00,
2013-06-19 13:04:00,83.0,72.6,29.96,South,180,0.2,0.2,71,0.00,,,0.00,WUHU216HW,2013-06-19 18:04:00,
2013-06-19 13:30:00,82.6,72.3,29.95,SSW,203,3.4,3.4,71,0.00,,,0.00,WUHU216HW,2013-06-19 18:30:00,
2013-06-19 13:35:00,82.6,72.3,29.95,SSW,203,3.4,3.4,71,0.00,,,0.00,WUHU216HW,2013-06-19 18:35:00,
2013-06-19 13:59:00,85.7,74.0,29.95,SSE,158,2.5,2.5,68,0.00,,,0.00,WUHU216HW,2013-06-19 18:59:00,
2013-06-19 14:04:00,85.7,74.0,29.95,SSE,158,2.5,2.5,68,0.00,,,0.00,WUHU216HW,2013-06-19 19:04:00,
2013-06-19 14:30:00,86.0,72.5,29.95,South,180,6.9,6.9,64,0.00,,,0.00,WUHU216HW,2013-06-19 19:30:00,
2013-06-19 14:35:00,86.0,72.5,29.95,South,180,6.9,6.9,64,0.00,,,0.00,WUHU216HW,2013-06-19 19:35:00,
2013-06-19 14:59:00,86.4,71.8,29.94,SSE,158,7.6,7.6,62,0.00,,,0.00,WUHU216HW,2013-06-19 19:59:00,
2013-06-19 15:05:00,86.4,71.8,29.94,SSE,158,7.6,7.6,62,0.00,,,0.00,WUHU216HW,2013-06-19 20:05:00,
2013-06-19 15:29:00,86.2,69.2,29.94,South,180,2.9,2.9,57,0.00,,,0.00,WUHU216HW,2013-06-19 20:29:00,
2013-06-19 15:34:00,86.2,69.2,29.94,South,180,2.9,2.9,57,0.00,,,0.00,WUHU216HW,2013-06-19 20:34:00,
2013-06-19 15:59:00,86.0,69.0,29.94,South,180,3.1,3.1,57,0.00,,,0.00,WUHU216HW,2013-06-19 20:59:00,
2013-06-19 16:04:00,86.0,69.0,29.94,South,180,3.1,3.1,57,0.00,,,0.00,WUHU216HW,2013-06-19 21:04:00,
2013-06-19 16:30:00,85.7,69.2,29.94,South,180,4.0,4.0,58,0.00,,,0.00,WUHU216HW,2013-06-19 21:30:00,
2013-06-19 16:35:00,85.7,69.2,29.94,South,180,4.0,4.0,58,0.00,,,0.00,WUHU216HW,2013-06-19 21:35:00,
2013-06-19 16:59:00,83.9,68.0,29.93,South,180,4.0,4.0,59,0.00,,,0.00,WUHU216HW,2013-06-19 21:59:00,
2013-06-19 17:05:00,83.9,68.0,29.93,South,180,4.0,4.0,59,0.00,,,0.00,WUHU216HW,2013-06-19 22:05:00,
2013-06-19 17:30:00,83.3,67.5,29.92,South,180,3.4,3.4,59,0.00,,,0.00,WUHU216HW,2013-06-19 22:30:00,
2013-06-19 17:35:00,83.3,67.5,29.92,South,180,3.4,3.4,59,0.00,,,0.00,WUHU216HW,2013-06-19 22:35:00,
2013-06-19 17:59:00,82.4,67.6,29.91,SSE,158,6.3,6.3,61,0.00,,,0.00,WUHU216HW,2013-06-19 22:59:00,
2013-06-19 18:05:00,82.4,67.6,29.91,SSE,158,6.3,6.3,61,0.00,,,0.00,WUHU216HW,2013-06-19 23:05:00,
2013-06-19 18:30:00,81.7,67.4,29.90,South,180,0.4,0.4,62,0.00,,,0.00,WUHU216HW,2013-06-19 23:30:00,
2013-06-19 18:35:00,81.7,67.4,29.90,South,180,0.4,0.4,62,0.00,,,0.00,WUHU216HW,2013-06-19 23:35:00,
2013-06-19 19:00:00,80.5,66.7,29.90,South,180,3.8,3.8,63,0.00,,,0.00,WUHU216HW,2013-06-20 00:00:00,
2013-06-19 19:05:00,80.5,66.7,29.90,South,180,3.8,3.8,63,0.00,,,0.00,WUHU216HW,2013-06-20 00:05:00,
2013-06-19 19:30:00,79.7,66.5,29.90,South,180,2.0,2.0,64,0.00,,,0.00,WUHU216HW,2013-06-20 00:30:00,
2013-06-19 19:35:00,79.7,66.5,29.90,South,180,2.0,2.0,64,0.00,,,0.00,WUHU216HW,2013-06-20 00:35:00,
2013-06-19 20:00:00,79.2,66.4,29.90,South,180,4.0,4.0,65,0.00,,,0.00,WUHU216HW,2013-06-20 01:00:00,
2013-06-19 20:05:00,79.2,66.4,29.90,South,180,4.0,4.0,65,0.00,,,0.00,WUHU216HW,2013-06-20 01:05:00,
2013-06-19 20:30:00,78.3,66.0,29.91,South,180,3.6,3.6,66,0.00,,,0.00,WUHU216HW,2013-06-20 01:30:00,
2013-06-19 20:35:00,78.3,66.0,29.91,South,180,3.6,3.6,66,0.00,,,0.00,WUHU216HW,2013-06-20 01:35:00,
2013-06-19 20:59:00,77.2,65.9,29.91,South,180,1.8,1.8,68,0.00,,,0.00,WUHU216HW,2013-06-20 01:59:00,
2013-06-19 21:04:00,77.2,65.9,29.91,South,180,1.8,1.8,68,0.00,,,0.00,WUHU216HW,2013-06-20 02:04:00,
2013-06-19 21:29:00,76.3,65.9,29.92,South,180,1.1,1.1,70,0.00,,,0.00,WUHU216HW,2013-06-20 02:29:00,
2013-06-19 21:34:00,76.3,65.9,29.92,South,180,1.1,1.1,70,0.00,,,0.00,WUHU216HW,2013-06-20 02:34:00,
2013-06-19 21:59:00,75.2,65.6,29.93,South,180,1.8,1.8,72,0.00,,,0.00,WUHU216HW,2013-06-20 02:59:00,
2013-06-19 22:04:00,75.2,65.6,29.93,South,180,1.8,1.8,72,0.00,,,0.00,WUHU216HW,2013-06-20 03:04:00,
2013-06-19 22:29:00,74.5,65.4,29.94,South,180,1.8,1.8,73,0.00,,,0.00,WUHU216HW,2013-06-20 03:29:00,
2013-06-19 22:34:00,74.5,65.4,29.94,South,180,1.8,1.8,73,0.00,,,0.00,WUHU216HW,2013-06-20 03:34:00,
2013-06-19 22:59:00,74.0,65.2,29.94,South,180,0.0,0.0,74,0.00,,,0.00,WUHU216HW,2013-06-20 03:59:00,
2013-06-19 23:01:00,74.0,65.2,29.94,South,180,0.0,0.0,74,0.00,,,0.00,WUHU216HW,2013-06-20 04:01:00,
2013-06-19 23:06:00,74.0,65.2,29.94,South,180,0.0,0.0,74,0.00,,,0.00,WUHU216HW,2013-06-20 04:06:00,
2013-06-19 23:29:00,73.4,65.1,29.95,South,180,1.1,1.1,75,0.00,,,0.00,WUHU216HW,2013-06-20 04:29:00,
2013-06-19 23:34:00,73.4,65.1,29.95,South,180,1.1,1.1,75,0.00,,,0.00,WUHU216HW,2013-06-20 04:34:00,
2013-06-19 23:59:00,72.7,65.1,29.95,South,180,0.9,0.9,77,0.00,,,0.00,WUHU216HW,2013-06-20 04:59:00,